Wind_Speed
25 26 26 27 27 28 28 27 25 26 27 28 28 30 36 38 38 37 36 33 29 26 24 23 21 20 20 20 21 21 19 19 22 23 23 25 27 28 27 28 27 27 27 29
23 24 25 26 27 26 27 26 25 26 26 27 27 29 32 35 36 36 36 35 31 29 27 25 23 22 21 22 22 23 22 21 23 24 26 29 31 32 32 33 31 32 32 31
22 23 25 25 26 26 26 25 25 26 27 27 27 28 29 32 33 34 35 35 34 32 30 28 27 26 24 23 22 23 25 25 25 27 29 32 33 34 35 36 34 34 34 35
20 23 24 25 25 26 25 25 25 26 27 26 27 27 27 28 30 33 33 34 35 33 32 31 29 28 28 26 25 26 27 27 28 31 33 33 33 35 36 35 35 35 35 35
19 22 24 25 25 25 26 27 27 27 27 26 26 26 27 27 28 30 31 32 34 34 34 33 31 30 30 29 28 28 29 30 31 34 34 34 36 37 37 37 37 36 35 35
18 21 23 24 25 25 26 28 28 28 27 27 26 27 27 27 27 28 29 31 33 34 34 33 33 33 32 32 31 31 33 33 34 34 35 37 38 39 38 38 38 37 37 37
17 19 21 23 25 25 26 28 28 28 28 28 27 28 29 28 29 29 30 31 33 35 35 36 36 36 35 34 34 35 36 37 38 38 39 39 40 41 40 39 40 41 40 40
16 18 20 21 22 23 24 26 27 28 28 28 28 29 29 30 30 30 31 31 32 33 35 36 37 37 37 37 38 39 39 40 40 41 42 43 43 44 44 44 44 44 44 43
15 16 18 20 21 22 23 24 26 26 27 28 30 30 30 30 31 32 32 32 33 34 36 38 38 39 40 40 41 41 42 42 42 43 45 46 47 47 47 47 46 45 44 44
15 16 17 18 20 21 23 24 25 26 26 27 29 31 31 30 31 33 34 35 35 35 37 38 40 40 42 42 42 42 42 43 45 45 47 48 49 49 49 48 47 47 46 45
15 16 16 18 20 20 22 23 24 25 27 28 29 31 31 32 32 34 35 36 37 38 39 39 39 39 41 42 43 43 43 44 45 46 47 48 48 48 48 48 48 48 47 47
13 14 16 17 18 19 20 22 23 25 26 28 29 31 31 32 33 34 36 37 38 39 40 40 40 39 39 40 40 41 43 43 44 45 46 47 48 48 48 49 49 49 49 49
12 12 14 15 16 18 19 20 22 24 26 28 30 31 31 31 32 33 35 36 37 38 38 38 39 38 38 38 38 39 40 41 43 45 46 46 46 47 47 47 48 49 50 51
9 10 11 13 14 16 17 18 20 22 24 26 28 30 31 31 33 34 35 36 37 38 39 39 38 38 37 36 36 37 37 38 39 40 42 43 44 44 45 46 47 49 50 51
6 7 9 11 13 15 17 18 19 21 23 26 27 29 31 31 33 34 35 35 36 37 37 37 37 36 36 35 34 34 34 34 34 35 36 38 39 39 41 43 45 47 50 51
3 5 8 10 12 14 16 17 19 21 22 25 26 28 28 29 30 30 31 31 32 32 33 33 33 32 32 32 32 31 31 31 32 33 35 36 37 39 40 43 45 46 48 50
3 5 6 8 11 13 15 16 18 20 21 23 24 26 26 27 28 28 28 28 28 29 29 29 28 28 28 28 28 29 29 29 31 32 34 35 37 38 40 42 43 45 47 48
5 6 7 8 10 12 14 15 17 18 20 21 22 24 25 25 25 26 26 26 25 25 25 25 25 25 25 26 26 27 29 30 31 32 33 35 37 38 40 41 42 44 45 47
6 8 9 9 10 11 12 14 16 17 18 19 20 20 20 21 22 23 22 21 22 22 22 22 23 23 24 25 26 27 28 29 31 32 34 35 36 38 39 40 42 44 45 46
7 8 9 10 11 12 13 14 15 16 16 16 17 18 19 19 20 20 20 19 19 20 20 20 22 23 24 24 26 27 28 28 30 31 33 34 36 37 38 39 41 42 43 44
9 10 11 11 12 13 13 14 14 14 14 15 15 16 16 16 16 17 17 17 18 18 19 20 20 21 22 23 24 25 27 28 30 31 32 33 34 35 36 37 39 40 41 41
10 11 12 13 13 13 14 14 13 14 14 14 14 14 14 14 15 15 15 15 16 17 18 18 19 20 21 22 24 25 27 28 28 29 29 30 31 32 34 35 36 36 36 35
11 13 13 14 13 14 14 14 14 14 14 13 13 13 13 13 13 14 14 15 15 15 16 17 18 18 20 21 23 24 25 25 25 25 26 27 28 30 31 32 31 31 30 28
12 13 14 14 14 15 15 14 14 14 13 12 11 11 11 11 11 12 13 12 13 13 14 15 16 17 19 20 21 21 22 22 22 23 24 25 26 26 26 26 25 25 24 23
13 14 15 15 15 15 15 15 14 13 12 12 11 10 9 9 9 9 10 10 11 12 13 14 16 17 18 19 19 19 19 19 20 21 21 22 22 23 23 22 21 21 20 19
14 15 16 16 16 16 15 14 13 13 12 11 10 9 8 8 8 9 9 10 12 13 14 15 16 17 17 16 16 16 17 18 18 18 19 19 19 20 20 19 18 18 17 16
Wind_Direction
220 216 215 215 215 214 212 211 213 215 217 219 219 217 219 224 228 230 230 230 229 229 229 229 231 229 233 237 238 239 242 243 244 248 254 259 261 262 261 262 266 269 271 273
218 214 212 212 211 210 209 209 210 214 218 220 221 221 223 226 229 230 230 230 230 229 229 231 233 236 238 235 237 241 244 247 248 253 260 264 263 265 265 264 266 269 272 275
215 209 208 208 206 205 205 206 207 211 216 219 221 223 226 228 229 231 231 230 231 232 232 232 233 237 241 241 243 246 249 250 255 260 265 267 268 269 269 269 271 274 274 277
209 205 204 203 201 201 202 202 204 209 214 217 218 220 224 226 227 229 230 230 230 231 233 235 237 240 245 248 252 254 255 254 258 261 264 266 270 272 275 277 277 277 279 283
202 200 200 199 199 201 201 201 202 208 214 216 217 219 222 224 225 227 228 228 229 230 233 236 240 243 247 251 254 258 261 260 262 263 266 269 275 277 280 281 285 285 290 291
199 197 196 195 197 200 202 202 204 208 214 216 218 221 221 221 223 225 226 228 230 233 236 239 244 247 250 254 257 261 264 266 267 268 269 274 277 279 282 288 290 292 293 295
193 194 193 195 198 200 203 206 208 212 215 219 221 225 225 224 225 227 230 232 235 238 242 244 247 249 252 254 258 262 266 267 270 272 274 277 281 285 289 291 292 292 293 293
184 187 191 195 199 202 205 210 213 217 220 223 225 230 230 229 231 233 236 239 242 245 249 251 254 256 258 260 262 264 267 269 271 274 277 280 283 286 287 289 290 290 290 290
176 183 189 195 198 204 207 210 214 220 225 230 232 235 236 236 238 239 242 245 249 253 256 258 260 261 263 265 266 266 269 270 272 274 277 279 281 284 286 287 288 287 287 287
176 181 188 195 202 206 211 212 217 222 227 232 236 239 242 243 244 247 250 253 255 258 259 261 263 265 266 267 268 268 270 272 274 275 277 279 280 281 283 284 284 285 285 285
180 188 195 200 206 210 215 220 224 229 233 237 241 244 246 249 251 253 255 258 260 263 265 266 267 269 269 271 271 270 271 272 274 276 277 278 280 281 282 283 283 283 284 284
186 194 201 208 213 218 222 227 232 236 239 242 245 249 251 254 256 258 260 262 264 266 268 269 270 273 274 275 276 274 273 273 275 276 276 277 278 279 280 281 282 281 281 281
193 200 209 216 221 225 229 233 238 241 244 248 251 254 256 259 260 262 264 266 268 269 271 274 276 277 279 279 279 278 278 278 278 278 278 278 277 278 278 279 280 280 281 282
203 211 219 229 233 234 238 242 246 249 251 255 257 259 259 262 263 266 268 270 272 274 276 279 281 282 282 283 282 281 281 280 280 278 276 276 277 279 280 281 281 281 282 284
220 231 238 243 243 245 250 255 258 259 260 261 263 264 265 267 268 269 272 273 275 277 279 281 284 283 284 284 283 281 281 281 280 279 280 281 283 284 284 283 283 284 284 284
246 255 256 259 260 260 262 266 266 265 265 265 268 270 270 271 272 272 274 276 277 279 280 281 283 284 284 283 281 280 281 281 281 281 283 284 286 287 286 285 285 286 286 287
294 290 284 281 277 274 273 273 272 271 270 270 270 271 272 274 275 276 277 279 279 278 280 280 282 283 282 282 281 282 282 281 284 284 285 287 288 288 288 288 287 287 288 288
315 308 305 300 293 287 285 279 279 279 278 278 277 274 274 275 276 278 279 281 282 283 285 284 282 281 282 282 284 284 285 286 288 288 288 288 289 290 291 291 291 291 292 292
330 323 316 310 304 299 295 291 288 287 284 283 282 280 278 279 280 280 277 276 278 279 281 281 281 281 281 284 286 286 288 290 291 291 291 292 293 294 295 295 295 295 295 295
344 338 329 321 315 311 308 304 299 295 291 288 285 282 281 283 280 279 278 278 278 276 276 276 277 279 282 285 286 288 290 291 293 294 294 295 296 298 299 300 300 299 298 298
349 344 338 331 325 322 319 314 309 304 301 297 293 289 287 282 277 276 278 278 280 280 279 278 281 285 285 287 288 290 292 294 296 297 298 299 301 302 303 304 304 303 302 301
354 351 346 341 336 331 328 324 319 314 309 304 300 296 291 285 282 281 281 281 281 281 283 285 287 288 289 290 291 293 294 297 299 301 302 304 306 307 308 308 308 308 307 307
358 355 351 348 344 339 336 331 325 321 318 313 309 303 297 292 288 286 288 289 289 290 291 293 293 294 296 297 298 299 300 302 304 306 307 309 311 313 314 315 315 315 315 315
0 358 355 353 349 345 342 337 331 327 324 321 316 312 307 302 300 300 299 299 298 299 300 300 301 303 303 303 303 304 305 306 307 309 312 315 318 320 322 324 325 325 326 326
3 360 357 355 352 348 345 341 337 332 326 324 324 321 317 313 311 311 310 309 309 309 308 306 307 307 307 307 307 308 309 310 312 315 318 321 325 328 329 330 332 333 336 337
3 2 359 356 354 352 349 347 344 341 338 334 331 330 328 327 325 323 322 320 319 317 315 313 312 312 311 312 314 315 316 317 319 323 326 328 331 335 338 341 343 344 346 350
Height
5761 5767 5772 5776 5782 5787 5793 5798 5802 5806 5810 5813 5817 5821 5824 5827 5831 5835 5839 5843 5847 5851 5854 5856 5859 5861 5862 5863 5865 5866 5866 5867 5867 5868 5869 5868 5867 5866 5865 5863 5862 5861 5859 5858
5759 5763 5768 5772 5778 5783 5789 5794 5799 5803 5806 5810 5814 5817 5821 5824 5827 5831 5835 5839 5843 5846 5850 5852 5854 5856 5857 5858 5860 5861 5861 5861 5862 5863 5862 5861 5859 5858 5857 5855 5854 5852 5851 5850
5755 5761 5764 5769 5775 5781 5786 5791 5796 5800 5803 5807 5811 5814 5817 5820 5823 5827 5830 5834 5838 5842 5845 5847 5849 5851 5852 5853 5854 5855 5855 5856 5856 5856 5855 5853 5852 5850 5849 5848 5846 5844 5843 5842
5752 5757 5761 5767 5772 5778 5783 5788 5792 5796 5800 5804 5808 5811 5814 5816 5819 5822 5826 5829 5833 5837 5840 5842 5844 5845 5847 5848 5848 5849 5849 5849 5850 5849 5847 5846 5844 5842 5841 5838 5836 5836 5835 5834
5750 5754 5759 5765 5770 5775 5781 5785 5790 5794 5798 5802 5805 5808 5811 5813 5816 5819 5822 5825 5828 5832 5834 5837 5839 5840 5841 5842 5842 5842 5842 5842 5842 5841 5840 5839 5837 5834 5832 5830 5828 5827 5827 5827
5749 5753 5758 5763 5768 5773 5778 5783 5787 5792 5795 5799 5802 5806 5808 5811 5813 5816 5818 5821 5824 5827 5829 5831 5832 5834 5834 5835 5835 5835 5835 5835 5834 5833 5832 5832 5829 5826 5823 5821 5820 5819 5819 5819
5749 5753 5757 5762 5766 5771 5776 5781 5785 5789 5793 5796 5799 5802 5805 5807 5810 5812 5815 5817 5819 5821 5823 5824 5826 5827 5827 5828 5828 5828 5828 5827 5826 5825 5823 5822 5820 5818 5816 5814 5813 5812 5811 5810
5749 5754 5757 5761 5766 5770 5774 5779 5784 5788 5791 5793 5796 5797 5801 5803 5806 5808 5810 5812 5814 5815 5817 5818 5819 5819 5820 5820 5820 5820 5819 5818 5817 5816 5814 5813 5812 5810 5808 5807 5806 5804 5803 5802
5750 5754 5757 5761 5765 5769 5772 5776 5781 5784 5787 5790 5791 5794 5796 5799 5801 5803 5804 5806 5807 5809 5809 5810 5811 5811 5811 5812 5812 5811 5811 5809 5809 5808 5806 5804 5803 5801 5800 5798 5796 5795 5793 5792
5751 5754 5758 5761 5764 5767 5771 5774 5778 5781 5783 5785 5787 5789 5792 5794 5795 5797 5798 5799 5800 5801 5802 5802 5802 5802 5802 5802 5802 5802 5801 5801 5799 5798 5796 5795 5793 5792 5790 5789 5786 5784 5783 5781
5752 5755 5758 5761 5763 5766 5769 5773 5775 5777 5780 5782 5783 5787 5787 5788 5789 5790 5791 5792 5792 5793 5793 5793 5793 5793 5793 5793 5793 5792 5792 5791 5789 5788 5786 5785 5783 5781 5780 5778 5776 5774 5771 5770
5753 5756 5758 5760 5763 5765 5767 5770 5772 5775 5776 5777 5779 5783 5781 5782 5783 5783 5784 5784 5784 5784 5784 5784 5784 5784 5784 5784 5783 5782 5782 5781 5779 5777 5776 5774 5773 5771 5769 5766 5765 5763 5761 5758
5754 5756 5758 5760 5763 5764 5765 5767 5768 5770 5771 5772 5773 5777 5775 5775 5776 5776 5776 5776 5776 5776 5776 5776 5775 5775 5775 5774 5773 5772 5771 5770 5768 5767 5765 5764 5762 5760 5758 5755 5753 5751 5748 5746
5754 5755 5758 5759 5760 5761 5762 5764 5765 5766 5767 5767 5768 5768 5769 5768 5768 5768 5768 5768 5768 5768 5767 5767 5767 5766 5765 5764 5763 5762 5761 5759 5758 5756 5754 5752 5751 5748 5746 5744 5741 5738 5735 5732
5754 5754 5755 5756 5757 5758 5759 5760 5761 5762 5761 5762 5762 5761 5762 5762 5761 5761 5761 5760 5760 5760 5759 5758 5758 5757 5756 5755 5754 5753 5751 5749 5747 5746 5744 5742 5739 5737 5734 5731 5728 5725 5722 5719
5753 5753 5754 5754 5755 5755 5756 5756 5756 5756 5756 5755 5755 5755 5755 5754 5754 5753 5753 5752 5752 5751 5751 5750 5749 5748 5747 5746 5744 5743 5741 5739 5738 5736 5734 5731 5729 5726 5723 5720 5716 5713 5709 5705
5752 5753 5753 5753 5752 5752 5752 5752 5751 5750 5750 5750 5749 5749 5748 5747 5746 5746 5745 5745 5744 5743 5742 5742 5741 5740 5738 5737 5735 5734 5732 5730 5729 5726 5724 5721 5718 5716 5713 5709 5705 5701 5697 5692
5752 5751 5751 5750 5750 5749 5751 5747 5746 5745 5744 5743 5742 5742 5741 5740 5739 5738 5738 5737 5736 5735 5734 5734 5733 5731 5730 5728 5727 5725 5724 5722 5720 5717 5715 5712 5709 5706 5702 5698 5694 5689 5685 5680
5751 5750 5749 5748 5747 5746 5745 5743 5742 5740 5739 5738 5736 5735 5734 5733 5733 5732 5731 5730 5730 5729 5728 5727 5726 5724 5723 5721 5719 5718 5716 5714 5711 5709 5706 5703 5700 5696 5692 5687 5683 5678 5673 5668
5750 5749 5748 5745 5744 5742 5742 5739 5737 5736 5734 5733 5731 5730 5729 5727 5727 5726 5725 5724 5723 5722 5721 5720 5719 5718 5716 5714 5713 5711 5708 5706 5704 5701 5698 5694 5691 5686 5682 5677 5673 5667 5662 5656
5749 5747 5745 5743 5741 5739 5738 5735 5733 5733 5731 5728 5726 5724 5723 5722 5722 5721 5719 5718 5718 5717 5716 5714 5713 5711 5710 5708 5706 5704 5702 5699 5696 5693 5690 5686 5682 5678 5673 5668 5663 5657 5651 5645
5748 5746 5743 5741 5739 5739 5734 5732 5730 5729 5725 5723 5721 5720 5719 5717 5716 5715 5714 5713 5712 5711 5710 5709 5707 5706 5704 5702 5700 5698 5695 5692 5689 5686 5682 5679 5674 5670 5665 5659 5653 5647 5641 5635
5747 5746 5742 5740 5739 5735 5731 5729 5727 5724 5722 5720 5718 5716 5715 5713 5712 5711 5710 5709 5708 5707 5705 5704 5702 5700 5698 5696 5694 5692 5689 5686 5683 5679 5676 5672 5667 5663 5657 5651 5646 5640 5634 5629
5747 5744 5741 5738 5735 5732 5729 5726 5724 5721 5719 5717 5715 5713 5712 5710 5709 5708 5707 5705 5704 5703 5701 5699 5698 5696 5694 5691 5689 5686 5683 5681 5677 5674 5670 5666 5662 5657 5651 5646 5640 5635 5629 5624
5746 5743 5740 5737 5734 5731 5728 5725 5722 5719 5717 5714 5713 5711 5709 5708 5707 5705 5704 5702 5701 5699 5698 5696 5694 5691 5689 5687 5684 5681 5678 5675 5672 5669 5665 5661 5657 5652 5647 5642 5637 5632 5627 5622
5745 5743 5740 5737 5733 5730 5727 5723 5720 5718 5715 5713 5711 5709 5708 5707 5705 5704 5702 5700 5698 5696 5694 5692 5690 5687 5685 5682 5679 5677 5674 5671 5668 5665 5661 5657 5653 5649 5644 5639 5635 5630 5626 5621